Alexander City, AL

6:01 PM CDT on April 26, 2017 (GMT -0500)
Russell

Weather History for KALX - November, 2013

Change the Weather History Date:

Monday, November 4, 2013

  Actual Average (KAUO) Record (KAUO)
Temperature  
Mean Temperature 56 °F -  
Max Temperature 71 °F 70 °F 84 °F (1974)
Min Temperature 42 °F 44 °F 25 °F (1963)
Degree Days  
Heating Degree Days 8    
Growing Degree Days 6 (Base 50)    
Moisture  
Dew Point 39 °F    
Average Humidity 56    
Maximum Humidity 84    
Minimum Humidity 24    
Precipitation  
Precipitation 0.00 in - - ()
Sea Level Pressure  
Sea Level Pressure 30.33 in    
Wind  
Wind Speed 3 mph (East)    
Max Wind Speed 9 mph    
Max Gust Speed 16 mph    
Visibility 10 miles    
Events      
Averages and records for this station are not official NWS values.
T = Trace of Precipitation, MM = Missing Value Source: NWS Daily Summary

Daily Weather History Graph

Daily Weather History Graph

Search for Another Location

Airport or City:

Trip Planner

Search our weather history database for the weather conditions in past years. The results will help you decide how hot, cold, wet, or windy it might be!

Date:

Astronomy

Nov. 04, 2013 Rise Set
Actual Time 6:04 AM CST 4:49 PM CST
Civil Twilight 5:38 AM CST 5:15 PM CST
Nautical Twilight 5:09 AM CST 5:44 PM CST
Astronomical Twilight 4:40 AM CST 6:13 PM CST
Moon 7:11 AM CST (11/4) 5:57 PM CST (11/4)
Length of Visible Light 11h 36m
Length of Day
10h 45m
New Moon, 2% of the Moon is Illuminated
Nov 4
New Moon
Nov 9
First Quarter
Nov 17
Full
Nov 25
Last Quarter
Dec 2
New

Hourly Weather History & Observations

Time (CST) Temp. Windchill Dew Point Humidity Pressure Visibility Wind Dir Wind Speed Gust Speed Precip Events Conditions
12:15 AM 42.8 °F - 37.9 °F 83% 30.29 in 10.0 mi Calm Calm - N/A   Clear
12:35 AM 42.8 °F - 37.9 °F 83% 30.29 in 10.0 mi Calm Calm - N/A   Clear
12:55 AM 43.7 °F - 39.0 °F 84% 30.29 in 10.0 mi Calm Calm - N/A   Clear
1:15 AM 44.4 °F - 39.7 °F 84% 30.29 in 10.0 mi Calm Calm - N/A   Clear
1:35 AM 45.1 °F - 40.1 °F 82% 30.29 in 10.0 mi Calm Calm - N/A   Clear
1:55 AM 45.1 °F - 39.7 °F 81% 30.29 in 10.0 mi Calm Calm - N/A   Clear
2:15 AM 43.9 °F - 38.7 °F 82% 30.29 in 10.0 mi Calm Calm - N/A   Clear
2:35 AM 44.2 °F - 39.0 °F 82% 30.29 in 10.0 mi Calm Calm - N/A   Clear
2:55 AM 45.3 °F - 39.6 °F 80% 30.28 in 10.0 mi Calm Calm - N/A   Clear
3:15 AM 47.3 °F - 41.0 °F 79% 30.28 in 10.0 mi Calm Calm - N/A   Clear
3:35 AM 42.8 °F - 37.2 °F 81% 30.30 in 10.0 mi Calm Calm - N/A   Clear
4:15 AM 43.5 °F - 37.8 °F 80% 30.29 in 10.0 mi Calm Calm - N/A   Clear
4:35 AM 44.8 °F - 39.2 °F 81% 30.30 in 10.0 mi Calm Calm - N/A   Clear
4:55 AM 45.3 °F 44.0 °F 39.2 °F 79% 30.29 in 10.0 mi East 3.5 mph - N/A   Clear
5:15 AM 47.7 °F - 40.6 °F 77% 30.30 in 10.0 mi East 3.5 mph - N/A   Clear
5:35 AM 46.8 °F - 39.7 °F 77% 30.31 in 10.0 mi Calm Calm - N/A   Clear
5:55 AM 45.1 °F - 38.5 °F 77% 30.32 in 10.0 mi Calm Calm - N/A   Clear
6:15 AM 44.2 °F - 38.5 °F 80% 30.32 in 10.0 mi Calm Calm - N/A   Clear
6:35 AM 46.0 °F - 38.8 °F 76% 30.33 in 10.0 mi Calm Calm - N/A   Clear
6:55 AM 47.7 °F - 40.1 °F 75% 30.35 in 10.0 mi Calm Calm - N/A   Clear
7:15 AM 47.7 °F - 40.3 °F 76% 30.35 in 10.0 mi Calm Calm - N/A   Clear
7:35 AM 50.2 °F - 41.4 °F 72% 30.36 in 10.0 mi East 5.8 mph - N/A   Clear
7:55 AM 51.4 °F - 40.5 °F 66% 30.35 in 10.0 mi East 5.8 mph - N/A   Clear
8:15 AM 55.4 °F - 42.3 °F 61% 30.37 in 10.0 mi East 5.8 mph - N/A   Clear
8:35 AM 55.4 °F - 41.0 °F 58% 30.36 in 10.0 mi East 6.9 mph - N/A   Clear
8:55 AM 55.6 °F - 39.9 °F 56% 30.37 in 10.0 mi East 9.2 mph - N/A   Clear
9:15 AM 57.7 °F - 39.9 °F 51% 30.37 in 10.0 mi ESE 3.5 mph - N/A   Clear
9:35 AM 60.3 °F - 40.1 °F 47% 30.37 in 10.0 mi East 8.1 mph - N/A   Clear
9:55 AM 61.7 °F - 39.2 °F 43% 30.38 in 10.0 mi East 6.9 mph - N/A   Clear
10:15 AM 62.8 °F - 36.9 °F 38% 30.38 in 10.0 mi East 9.2 mph 16.1 mph N/A   Clear
10:35 AM 65.5 °F - 37.2 °F 35% 30.38 in 10.0 mi ESE 4.6 mph - N/A   Clear
10:55 AM 65.5 °F - 35.1 °F 32% 30.38 in 10.0 mi East 9.2 mph - N/A   Clear
11:15 AM 65.7 °F - 33.1 °F 30% 30.37 in 10.0 mi ESE 8.1 mph 16.1 mph N/A   Clear
11:35 AM 69.3 °F - 34.9 °F 28% 30.36 in 10.0 mi ESE 8.1 mph - N/A   Clear
11:55 AM 70.7 °F - 35.1 °F 27% 30.34 in 10.0 mi ESE 6.9 mph - N/A   Clear
12:15 PM 70.7 °F - 32.5 °F 24% 30.34 in 10.0 mi ENE 8.1 mph - N/A   Clear
12:35 PM 70.7 °F - 32.2 °F 24% 30.33 in 10.0 mi ESE 6.9 mph - N/A   Clear
12:55 PM 70.7 °F - 31.8 °F 24% 30.32 in 10.0 mi East 4.6 mph - N/A   Clear
1:15 PM 70.7 °F - 31.6 °F 24% 30.32 in 10.0 mi ESE 3.5 mph - N/A   Clear
1:35 PM 70.7 °F - 32.2 °F 24% 30.31 in 10.0 mi East 3.5 mph - N/A   Clear
1:55 PM 71.1 °F - 34.5 °F 26% 30.31 in 10.0 mi East 6.9 mph - N/A   Clear
2:15 PM 71.2 °F - 35.8 °F 27% 30.31 in 10.0 mi SE 4.6 mph - N/A   Clear
2:35 PM 71.4 °F - 36.7 °F 28% 30.31 in 10.0 mi East 9.2 mph - N/A   Clear
2:55 PM 70.9 °F - 37.4 °F 29% 30.31 in 10.0 mi ESE 5.8 mph - N/A   Clear
3:15 PM 70.7 °F - 40.6 °F 34% 30.31 in 10.0 mi SSE 3.5 mph - N/A   Clear
3:35 PM 70.7 °F - 41.4 °F 35% 30.31 in 10.0 mi ESE 5.8 mph - N/A   Clear
3:55 PM 70.7 °F - 43.3 °F 37% 30.31 in 10.0 mi East 3.5 mph - N/A   Clear
4:15 PM 70.7 °F - 45.0 °F 40% 30.31 in 10.0 mi East 4.6 mph - N/A   Clear
4:35 PM 68.0 °F - 45.3 °F 44% 30.31 in 10.0 mi East 4.6 mph - N/A   Clear
4:55 PM 63.3 °F - 44.4 °F 50% 30.31 in 10.0 mi East 3.5 mph - N/A   Clear
5:15 PM 61.9 °F - 44.8 °F 53% 30.31 in 10.0 mi East 3.5 mph - N/A   Clear
5:35 PM 61.7 °F - 43.3 °F 51% 30.31 in 10.0 mi East 4.6 mph - N/A   Clear
5:55 PM 61.2 °F - 45.0 °F 55% 30.33 in 10.0 mi Calm Calm - N/A   Clear
6:15 PM 57.7 °F - 47.3 °F 68% 30.33 in 10.0 mi Calm Calm - N/A   Clear
6:35 PM 57.7 °F - 48.6 °F 71% 30.33 in 10.0 mi Calm Calm - N/A   Clear
6:55 PM 55.9 °F - 46.4 °F 70% 30.34 in 10.0 mi Calm Calm - N/A   Clear
7:15 PM 57.7 °F - 43.7 °F 60% 30.35 in 10.0 mi East 4.6 mph - N/A   Clear
7:35 PM 57.7 °F - 42.6 °F 57% 30.35 in 10.0 mi East 5.8 mph - N/A   Clear
7:55 PM 57.7 °F - 40.3 °F 52% 30.35 in 10.0 mi East 6.9 mph - N/A   Clear
8:15 PM 57.7 °F - 39.0 °F 50% 30.35 in 10.0 mi East 6.9 mph - N/A   Clear
8:35 PM 57.7 °F - 39.7 °F 51% 30.36 in 10.0 mi ENE 5.8 mph - N/A   Clear
8:55 PM 55.4 °F - 37.9 °F 52% 30.36 in 10.0 mi East 4.6 mph - N/A   Clear
9:15 PM 55.6 °F - 37.6 °F 51% 30.36 in 10.0 mi East 5.8 mph - N/A   Clear
9:35 PM 55.4 °F - 37.4 °F 51% 30.36 in 10.0 mi East 5.8 mph - N/A   Clear
9:55 PM 55.4 °F - 38.1 °F 52% 30.35 in 10.0 mi East 5.8 mph - N/A   Clear
10:15 PM 55.4 °F - 37.4 °F 51% 30.36 in 10.0 mi East 4.6 mph - N/A   Clear
10:35 PM 55.4 °F - 37.2 °F 50% 30.36 in 10.0 mi Calm Calm - N/A   Clear
10:55 PM 55.4 °F - 37.2 °F 50% 30.37 in 10.0 mi NE 4.6 mph - N/A   Clear
11:15 PM 55.2 °F - 38.7 °F 54% 30.37 in 10.0 mi Calm Calm - N/A   Clear
11:35 PM 52.7 °F - 36.9 °F 55% 30.37 in 10.0 mi ENE 3.5 mph - N/A   Clear
11:55 PM 52.7 °F - 37.2 °F 56% 30.37 in 10.0 mi Calm Calm - N/A   Clear